This is the latest recevied weather packets stored in our database for station/object KC1IUC-13. If no packets are shown the sender has not sent any weather packets the latest 10 day(s).
| Time | Temp. | Humidity | Pressure | Rain* | Wind** | Luminosity | Snow |
|---|---|---|---|---|---|---|---|
| 1777910944 | 21.11° C | 44% | 1006.6 hPa | 0 mm | - | 377 W/m² | - |
| 1777910404 | 20.56° C | 44% | 1006.6 hPa | 0 mm | - | 729 W/m² | - |
| 1777910044 | 20.56° C | 44% | 1007.3 hPa | 0 mm | - | 649 W/m² | - |
| 1777909504 | 20° C | 45% | 1007.3 hPa | 0 mm | - | 652 W/m² | - |
| 1777908964 | 20° C | 45% | 1007.6 hPa | 0 mm | - | 127 W/m² | - |
| 1777908424 | 20° C | 47% | 1007.6 hPa | 0 mm | - | 56 W/m² | - |
| 1777907884 | 19.44° C | 46% | 1007.6 hPa | 0 mm | - | 62 W/m² | - |
| 1777907344 | 19.44° C | 47% | 1007.6 hPa | 0 mm | - | 156 W/m² | - |
| 1777906804 | 18.89° C | 48% | 1007.6 hPa | 0 mm | - | 89 W/m² | - |
| 1777906444 | 18.89° C | 49% | 1007.6 hPa | 0 mm | - | 116 W/m² | - |
| 1777905904 | 18.89° C | 50% | 1008 hPa | 0 mm | - | 151 W/m² | - |
| 1777905364 | 18.89° C | 51% | 1008 hPa | 0 mm | - | 110 W/m² | - |
| 1777904824 | 18.89° C | 52% | 1008.3 hPa | 0 mm | - | 55 W/m² | - |
| 1777904284 | 18.33° C | 53% | 1008 hPa | 0 mm | - | 154 W/m² | - |
| 1777903744 | 18.33° C | 55% | 1008 hPa | 0 mm | - | 51 W/m² | - |
| 1777903204 | 17.78° C | 56% | 1008.3 hPa | 0 mm | - | 128 W/m² | - |
| 1777902844 | 17.78° C | 57% | 1008.3 hPa | 0 mm | - | 222 W/m² | - |
| 1777902304 | 17.78° C | 58% | 1008.3 hPa | 0 mm | - | 227 W/m² | - |
| 1777901764 | 17.78° C | 60% | 1008.3 hPa | 0 mm | - | 394 W/m² | - |
| 1777901224 | 18.33° C | 63% | 1008.3 hPa | 0 mm | - | 163 W/m² | - |
| 1777900684 | 17.22° C | 65% | 1008.7 hPa | 0 mm | - | 302 W/m² | - |
| 1777900144 | 15.56° C | 67% | 1008.7 hPa | 0 mm | - | 364 W/m² | - |
| 1777899604 | 15° C | 69% | 1008.7 hPa | 0 mm | - | 79 W/m² | - |
| 1777899244 | 14.44° C | 71% | 1008.7 hPa | 0 mm | - | 82 W/m² | - |
| 1777898704 | 13.33° C | 73% | 1009 hPa | 0 mm | - | 75 W/m² | - |
* Rain latest hour (hover to see other rain measurements)
** Current wind speed in m/s (hover to see current wind gust speed)